Voltar ao catálogo

CHIRKIN V.N.

AtivoNavegaçãoSSO
NORAD 57192·PAYLOAD·🇷🇺 Russia
Este nome de satélite ainda não foi confirmado por fontes oficiais.

Lançado Jun 27, 2023 de Vostochny Cosmodrome

Loading…

Próximas Passagens (próximas 24 horas)

TLE

AtualizadoSource: Space-Track

Época: Sep 14, 2026, 21:48 UTC

1 57192U 23091AC  26257.90836848  .00009667  00000-0  36242-3 0  9995
2 57192  97.4973 321.3566 0012097 144.5452 215.6594 15.27394389177979

Acompanhe CHIRKIN V.N. em tempo real com AllMySat

Download on the App Store